Terminal Aerodrome Forecast
Issued by NWS Blacksburg, VA

Current Version | Previous Version | Graphics & Text | Print | Product List | Glossary On
Versions: 1 2 3 4 5 6 7 8 9 10 11 12 13 14 15 16 17 18 19 20 21 22 23 24 25
000
FTUS41 KRNK 302329
TAFBLF
TAF
KBLF 302329Z 0100/0124 28004KT P6SM FEW045
     FM010900 VRB03KT 6SM BR SKC
     FM011300 24004KT P6SM SCT045=

USA.gov is the U.S. government's official web portal to all federal, state and local government web resources and services.